Regional Weather Roundup
Issued by NWS San Angelo, TX

Home | Current Version | Previous Version | Text Only | Print | Product List | Glossary On
Versions: 1 2 3 4 5 6 7 8 9 10 11 12 13 14 15 16 17 18 19 20 21 22 23 24 25 26 27 28 29 30 31 32 33 34 35 36 37 38 39 40 41 42 43 44 45 46 47 48 49 50
000
ASUS44 KSJT 300510
RWRSJT
WEST CENTRAL TEXAS REGIONAL WEATHER ROUNDUP
NATIONAL WEATHER SERVICE SAN ANGELO TX
1100 PM CST THU JAN 29 2015

NOTE: "FAIR" INDICATES FEW OR NO CLOUDS BELOW 12,000 FEET WITH NO
SIGNIFICANT WEATHER AND/OR OBSTRUCTIONS TO VISIBILITY.

TXZ049-054-064>066-071>073-076>078-098-099-113-114-127-128-139-140-
154-155-168>170-300600
...LOCATIONS ACROSS WEST CENTRAL TEXAS...

CITY           SKY/WX    TMP DP  RH WIND       PRES   REMARKS
SAN ANGELO     CLOUDY    50  33  52 NE16      30.44R
ABILENE        CLOUDY    48  29  47 N7        30.49R
DYESS AFB      CLOUDY    47  30  50 NE8       30.49R
JUNCTION       CLOUDY    54  34  46 NE10      30.40S
SWEETWATER     CLOUDY    46  28  49 NE15      30.51R
BROWNWOOD      CLOUDY    48  30  49 N9        30.46F
COLEMAN        CLOUDY    48  33  55 NE10      30.47R
SONORA         CLOUDY    54  32  43 NE17      30.43S
OZONA          FAIR      50  32  50 NE12      30.44R
BRADY          CLOUDY    52  37  58 N15       30.41S
$$

TEXAS PANHANDLE/OKLAHOMA PANHANDLE

CITY           SKY/WX    TMP DP  RH WIND       PRES   REMARKS
AMARILLO       MOCLDY    39  28  64 E5        30.50S WCI  36
BORGER         CLOUDY    44  26  49 CALM      30.51R
CANADIAN       CLOUDY    38  28  68 CALM      30.52R
DALHART        CLOUDY    39  30  70 SW3       30.50F
DUMAS          CLOUDY    37  29  73 CALM      30.50F
GUYMON         NOT AVBL
HEREFORD       CLOUDY    40  33  76 CALM      30.51S
PAMPA          CLOUDY    38  27  62 E6        30.51S WCI  34
PERRYTON         N/A     34  24  67 CALM      30.51R
$$

SOUTHERN PANHANDLE/SOUTH PLAINS/ROLLING PLAINS

CITY           SKY/WX    TMP DP  RH WIND       PRES   REMARKS
LUBBOCK        CLOUDY    42  28  57 NE7       30.49S WCI  38
SNYDER         CLOUDY   N/A N/A N/A NE10      30.49S
CHILDRESS      CLOUDY    46  28  49 NE3       30.52R
SEMINOLE       CLOUDY    46  24  43 E7        30.50F
$$

PERMIAN BASIN

CITY           SKY/WX    TMP DP  RH WIND       PRES   REMARKS
MIDLAND        CLOUDY    48  32  53 NE16      30.46S
ODESSA         LGT RAIN  47  32  56 NE10      30.47S
WINK           CLOUDY    51  28  41 NE10      30.46R
$$

FAR WEST/SOUTHWEST MOUNTAINS/TRANS PECOS

CITY           SKY/WX    TMP DP  RH WIND       PRES   REMARKS
ALPINE         CLOUDY    45  38  76 NE8       30.49R
DRYDEN           N/A     57  37  47 N14       30.38R
EL PASO        CLOUDY    51  36  56 E14       30.36R
FORT STOCKTON  CLOUDY    50  34  54 E9        30.44S
GUADALUPE PASS LGT SNOW  36  35  96 NE37      30.42R FOG     WCI  22
MARFA          CLOUDY    45  36  70 NE15G23   30.42S WCI  38
PECOS          CLOUDY    52  31  45 NE12      30.46R
$$

DALLAS/FORT WORTH METROPLEX

CITY           SKY/WX    TMP DP  RH WIND       PRES   REMARKS
DFW AIRPORT    CLOUDY    49  31  49 N14       30.48R
FTW MEACHAM    CLOUDY    50  32  50 N10       30.48R
DAL-EXECUTIVE  CLOUDY    52  30  43 NE8       30.47R
GRAND PRAIRIE  CLOUDY   N/A N/A N/A MISG      30.49R
ADDISON        CLOUDY    50  31  48 N9        30.49R
MESQUITE       CLOUDY    49  32  50 N9        30.48R
LANCASTER      MOCLDY    50  31  47 N12       30.48S
$$

NORTH CENTRAL TEXAS

CITY           SKY/WX    TMP DP  RH WIND       PRES   REMARKS
SHRMAN/DENISON MOCLDY    47  35  64 N9        30.49R
GAINESVILLE    CLOUDY    46  31  56 N5        30.52R
BRIDGEPORT     CLOUDY    48  34  58 N7        30.52R
DENTON         CLOUDY    48  31  51 N9        30.49R
WAXAHACHIE     CLOUDY    50  33  52 N12G17    30.48R
GRANBURY       PTCLDY    48  34  58 N5        30.50R
$$

WESTERN NORTH TEXAS

CITY           SKY/WX    TMP DP  RH WIND       PRES   REMARKS
WICHITA FALLS  CLOUDY    43  32  65 N6        30.51R WCI  39
VERNON         CLOUDY    45  28  50 CALM      30.53R
BRECKENRIDGE   CLOUDY    49  30  47 NE12      30.50S
COMANCHE       CLOUDY    47  33  58 NE9       30.46F
$$

CENTRAL AND SOUTH CENTRAL TEXAS

CITY           SKY/WX    TMP DP  RH WIND       PRES   REMARKS
AUSTIN/BERGSTM MOCLDY    59  38  45 N16       30.38R
WACO           MOCLDY    52  35  52 N9        30.46R
HILLSBORO      MOCLDY    50  32  49 N9        30.46R
TEMPLE         MOCLDY    54  32  43 N14       30.41S
KILLEEN-GRAY   CLOUDY    54  33  46 N14G21    30.42R
FORT HOOD      CLOUDY    55  32  43 N18       30.41S
GEORGETOWN     CLOUDY    57  34  41 N15G21    30.41R
LAGO VISTA     CLOUDY    58  33  39 NE15G26   30.39S
SAN MARCOS     PTCLDY    59  37  44 NE20      30.37S
NEW BRAUNFELS  PTCLDY    61  41  47 NE9       30.35R
RANDOLPH AFB   MOCLDY    63  40  42 NE10      30.35S
SAN ANTONIO    CLOUDY    64  40  41 NE15      30.35S
STINSON        CLOUDY    65  41  41 NE12      30.32S
PLEASANTON     NOT AVBL
LA GRANGE      PTCLDY    63  44  50 N7        30.34R
GIDDINGS       MOCLDY    61  40  45 N8G16     30.40R
$$

EAST TEXAS

CITY           SKY/WX    TMP DP  RH WIND       PRES   REMARKS
PARIS          CLOUDY    46  30  53 N6        30.47S
CLARKSVILLE    NOT AVBL
TYLER          CLOUDY    50  33  52 N9        30.43R
LONGVIEW       CLOUDY    51  33  50 N9G18     30.42R
PALESTINE      MOCLDY    51  36  54 N12       30.42R
NACOGDOCHES    MOCLDY    55  37  50 N12G23    30.38R
$$

TEXAS HILL COUNTRY AND EDWARDS PLATEAU

CITY           SKY/WX    TMP DP  RH WIND       PRES   REMARKS
LLANO          CLOUDY    55  34  44 NE8       30.47R
HORSESHOE BAY  CLOUDY    57  33  39 N9G17     30.42R
KERRVILLE      PTCLDY    56  40  55 N6        30.39R
FREDERICKSBRG  MOCLDY    54  34  48 NE10      30.40R
ROCKSPRINGS    NOT AVBL
HONDO          PTCLDY    54  44  69 NE8       30.36R
UVALDE         PTCLDY    58  44  59 NE7       30.34S
DEL RIO        MOCLDY    64  39  39 NE8       30.34R
$$

SOUTHEAST TEXAS

CITY           SKY/WX    TMP DP  RH WIND       PRES   REMARKS
COLLEGE STN    PTCLDY    58  38  47 N18       30.36R
CALDWELL       MOCLDY    57  36  44 N13       30.40R
CROCKETT       PTCLDY    57  41  54 N8        30.40R
BRENHAM        MOCLDY    63  42  47 N12G17    30.36R
HUNTSVILLE     CLEAR     58  41  53 N5        30.36R
CONROE         PTCLDY    61  41  47 N8        30.34R
HOUSTON BUSH   MOCLDY    64  48  56 N12       30.31R
HOUSTON HOBBY  MOCLDY    65  57  75 N8        30.30R
PERLAND        PTCLDY    59  56  89 CALM      30.31R
WHARTON        PTCLDY    57  56  97 NW5       30.32R
$$

THE UPPER TEXAS COAST

CITY           SKY/WX    TMP DP  RH WIND       PRES   REMARKS
ORANGE         PTCLDY    60  59  96 W3        30.30R
PORT ARTHUR    PTCLDY    58  57  97 W5        30.28R
GALVESTON      CLEAR     60  60 100 CALM      30.30S
ANGLETON       CLEAR     56  56 100 CALM      30.30S
BAY CITY       PTCLDY    58  58 100 CALM      30.30S FOG
$$

TEXAS COASTAL BEND, RIO GRANDE PLAINS DEEP SOUTH TEXAS

CITY           SKY/WX    TMP DP  RH WIND       PRES   REMARKS
VICTORIA       PTCLDY    58  56  93 S3        30.31S
BEEVILLE       FAIR      58  58 100 NE3       30.30F
ROCKPORT       MOCLDY    61  59  93 SE6       30.29S
PORT ARANSAS   PTCLDY    62  60  95 E6        30.29S
PORT LAVACA    PTCLDY    57  57  98 N5        30.31S
CORPUS CHRISTI MOCLDY    60  59  96 E7        30.29S
KINGSVILLE NAS MOCLDY    61  61 100 E5        30.29R
COTULLA        PTCLDY    63  57  81 NE6       30.32R
LAREDO         PTCLDY    64  59  84 E8        30.31R
BROWNSVILLE    CLEAR     61  60  97 NE6       30.26S
PORT ISABEL    CLEAR     64  62  93 E7        30.26S
HEBBRONVILLE   RAIN      61  59  93 NE6       30.31R
MCALLEN        PTCLDY    65  61  87 E6        30.27R
WESLACO        CLEAR     63  59  87 E3        30.27R
FALFURRIAS     MOCLDY    61  59  94 NE5       30.29R
EDINBURG       PTCLDY    63  59  87 SE3       30.28R
$$



USA.gov is the U.S. government's official web portal to all federal, state and local government web resources and services.